TimeEDT,TemperatureF,Dew PointF,Humidity,Sea Level PressureIn,VisibilityMPH,Wind Direction,Wind SpeedMPH,Gust SpeedMPH,PrecipitationIn,Events,Conditions,WindDirDegrees,DateUTC
12:53 AM,66.9,63.0,87,29.53,10.0,WNW,6.9,-,N/A,,Scattered Clouds,290,2013-06-14 04:53:00
1:53 AM,66.9,63.0,87,29.54,10.0,West,4.6,-,N/A,,Overcast,260,2013-06-14 05:53:00
2:53 AM,66.9,62.1,84,29.56,10.0,West,5.8,-,N/A,,Overcast,280,2013-06-14 06:53:00
3:21 AM,68.0,60.8,78,29.57,10.0,NNW,9.2,-,N/A,,Overcast,330,2013-06-14 07:21:00
3:33 AM,66.2,60.8,83,29.57,10.0,NW,9.2,23.0,N/A,,Overcast,320,2013-06-14 07:33:00
3:41 AM,66.2,60.8,83,29.57,10.0,NNW,10.4,19.6,N/A,,Overcast,330,2013-06-14 07:41:00
3:48 AM,66.2,60.8,83,29.57,10.0,NNW,11.5,-,N/A,,Overcast,330,2013-06-14 07:48:00
3:53 AM,66.9,61.0,81,29.58,10.0,NNW,8.1,-,N/A,,Overcast,330,2013-06-14 07:53:00
4:11 AM,66.2,60.8,83,29.58,10.0,NNW,8.1,21.9,N/A,,Overcast,330,2013-06-14 08:11:00
4:18 AM,66.2,60.8,83,29.59,10.0,NW,11.5,16.1,N/A,,Overcast,320,2013-06-14 08:18:00
4:46 AM,64.4,59.0,83,29.61,10.0,North,12.7,18.4,N/A,,Overcast,10,2013-06-14 08:46:00
4:53 AM,63.0,59.0,87,29.62,10.0,North,11.5,20.7,N/A,,Overcast,350,2013-06-14 08:53:00
5:53 AM,61.0,57.9,90,29.65,10.0,NNW,11.5,19.6,N/A,,Overcast,340,2013-06-14 09:53:00
6:12 AM,60.8,59.0,94,29.66,3.0,North,8.1,-,0.01,Rain,Light Rain,10,2013-06-14 10:12:00
6:14 AM,60.8,59.0,94,29.66,2.5,North,6.9,-,0.01,Rain,Light Rain,360,2013-06-14 10:14:00
6:27 AM,59.0,57.2,94,29.66,5.0,North,13.8,19.6,0.02,Rain,Light Rain,360,2013-06-14 10:27:00
6:48 AM,59.0,57.2,94,29.68,10.0,North,8.1,-,0.02,,Overcast,360,2013-06-14 10:48:00
6:53 AM,59.0,57.9,96,29.68,10.0,North,13.8,21.9,0.02,,Overcast,10,2013-06-14 10:53:00
7:15 AM,59.0,55.4,88,29.68,10.0,North,9.2,-,0.00,,Overcast,10,2013-06-14 11:15:00
7:38 AM,57.2,57.2,100,29.70,4.0,NNW,9.2,20.7,0.00,Rain,Light Rain,340,2013-06-14 11:38:00
7:53 AM,57.9,57.0,97,29.71,10.0,NNW,6.9,-,0.00,,Overcast,340,2013-06-14 11:53:00
8:08 AM,59.0,57.2,94,29.72,7.0,North,8.1,-,N/A,,Overcast,350,2013-06-14 12:08:00
8:13 AM,57.2,57.2,100,29.73,4.0,NNW,9.2,-,0.00,Rain,Light Rain,330,2013-06-14 12:13:00
8:19 AM,57.2,57.2,100,29.73,2.0,NNW,9.2,-,0.01,Rain,Light Rain,330,2013-06-14 12:19:00
8:22 AM,57.2,57.2,100,29.73,1.8,NNW,9.2,-,0.01,Rain,Light Rain,340,2013-06-14 12:22:00
8:35 AM,57.2,57.2,100,29.74,3.0,North,10.4,18.4,0.02,Rain,Light Rain,360,2013-06-14 12:35:00
8:53 AM,59.0,57.9,96,29.74,10.0,North,11.5,-,0.02,,Overcast,360,2013-06-14 12:53:00
9:53 AM,60.1,57.9,93,29.76,10.0,North,13.8,23.0,0.00,,Overcast,350,2013-06-14 13:53:00
10:13 AM,60.8,57.2,88,29.77,10.0,North,13.8,19.6,N/A,,Overcast,10,2013-06-14 14:13:00
10:53 AM,60.1,57.0,90,29.79,10.0,North,11.5,20.7,N/A,,Overcast,360,2013-06-14 14:53:00
11:53 AM,63.0,55.9,78,29.81,10.0,North,15.0,23.0,N/A,,Overcast,10,2013-06-14 15:53:00
12:53 PM,63.0,55.0,75,29.85,10.0,NNE,16.1,24.2,N/A,,Overcast,20,2013-06-14 16:53:00
1:13 PM,62.6,55.4,77,29.85,10.0,North,10.4,18.4,N/A,,Overcast,360,2013-06-14 17:13:00
1:21 PM,64.4,55.4,73,29.86,10.0,NNE,13.8,19.6,N/A,,Overcast,30,2013-06-14 17:21:00
1:53 PM,66.9,55.0,66,29.86,10.0,NNE,12.7,20.7,N/A,,Scattered Clouds,20,2013-06-14 17:53:00
2:53 PM,69.1,55.9,63,29.87,10.0,NE,8.1,-,N/A,,Scattered Clouds,50,2013-06-14 18:53:00
3:53 PM,70.0,55.0,59,29.88,10.0,North,9.2,-,N/A,,Partly Cloudy,10,2013-06-14 19:53:00
4:53 PM,71.1,55.9,59,29.88,10.0,NW,10.4,18.4,N/A,,Partly Cloudy,310,2013-06-14 20:53:00
5:53 PM,72.0,55.0,55,29.86,10.0,West,10.4,-,N/A,,Clear,280,2013-06-14 21:53:00
6:53 PM,72.0,55.9,57,29.87,10.0,NW,3.5,-,N/A,,Clear,310,2013-06-14 22:53:00
7:53 PM,69.1,59.0,70,29.88,10.0,SW,3.5,-,N/A,,Partly Cloudy,230,2013-06-14 23:53:00
8:53 PM,64.0,60.1,87,29.89,9.0,Calm,Calm,-,N/A,,Clear,0,2013-06-15 00:53:00
9:31 PM,64.4,57.2,77,29.93,10.0,ESE,10.4,17.3,N/A,,Overcast,120,2013-06-15 01:31:00
9:53 PM,64.0,57.0,78,29.94,10.0,SSE,4.6,-,N/A,,Partly Cloudy,160,2013-06-15 01:53:00
10:53 PM,64.0,59.0,84,29.95,10.0,Calm,Calm,-,N/A,,Partly Cloudy,0,2013-06-15 02:53:00
11:53 PM,63.0,59.0,87,29.96,10.0,SSW,6.9,-,N/A,,Clear,210,2013-06-15 03:53:00